EHI
0 0 0 0 1 1 1 0 0 0 0 0 0 0 0 0 0 0 0 0 0 0 0 0 0 0 0 0 0 0 0 0 0 0 0 0 0 0 0 0 0 0 0 0
0 0 0 0 1 2 1 0 0 0 0 0 0 0 0 0 0 0 0 0 0 0 0 0 0 0 0 0 0 0 0 0 0 0 0 0 0 0 0 0 0 0 0 0
0 0 0 0 1 2 1 0 0 0 0 0 0 0 0 0 0 0 0 0 0 0 0 0 0 0 0 0 0 0 0 0 0 0 0 0 0 0 0 0 0 0 0 0
0 0 0 0 1 1 1 0 0 0 0 0 0 0 0 0 0 0 0 0 0 0 0 0 0 0 0 0 0 0 0 0 0 0 0 0 0 0 0 0 0 0 0 0
0 0 0 0 0 0 0 0 0 0 0 0 0 0 0 0 0 0 0 0 0 0 0 0 0 0 0 0 0 0 0 0 0 0 0 0 0 0 0 0 0 0 0 0
0 0 0 0 0 0 0 0 0 0 0 0 0 0 0 0 0 0 0 0 0 0 0 0 0 0 0 0 0 0 0 0 0 0 0 0 0 0 0 0 0 0 0 0
0 0 0 0 0 0 0 0 0 0 0 0 0 0 0 0 0 0 0 0 0 0 0 0 0 0 0 0 0 0 0 0 0 0 0 0 0 0 0 0 0 0 0 0
0 0 0 0 0 0 0 0 0 0 0 0 0 0 0 0 0 0 0 0 0 0 0 0 0 0 0 0 0 0 0 0 0 0 0 0 0 0 0 0 0 0 0 0
0 0 0 0 0 0 0 0 0 0 0 0 0 0 0 0 0 0 0 0 0 0 0 0 0 0 0 0 0 0 0 0 0 0 0 0 0 0 0 0 0 0 0 0
0 0 0 0 0 0 0 0 0 0 0 0 0 0 0 0 0 0 0 0 0 0 0 0 0 0 0 0 0 0 0 0 0 0 0 0 0 0 0 0 0 0 0 0
0 0 0 0 0 0 0 0 0 0 0 0 0 0 0 0 0 0 0 0 0 0 0 0 0 0 0 0 0 0 0 0 0 0 0 0 0 0 0 0 0 0 0 0
0 0 0 0 0 0 0 0 0 0 0 0 0 0 0 0 0 0 0 0 0 0 0 0 0 0 0 0 0 0 0 0 0 0 0 0 0 0 0 0 0 0 0 0
0 0 0 0 0 0 0 0 0 0 0 0 0 0 0 0 0 0 0 0 0 0 0 0 0 0 0 0 0 0 0 0 0 0 0 0 0 0 0 0 0 0 0 0
0 0 0 0 0 0 0 0 0 0 0 0 0 0 0 0 0 0 0 0 0 0 0 0 0 0 0 0 0 0 0 0 0 0 0 0 0 0 0 0 0 0 0 0
0 0 0 0 0 0 0 0 0 0 0 0 0 0 0 0 0 0 0 0 0 0 0 0 0 0 0 0 0 0 0 0 0 0 0 0 0 0 0 0 0 0 0 0
0 0 0 0 0 0 0 0 0 0 0 0 0 0 0 0 0 0 0 0 0 0 0 0 0 0 0 0 0 0 0 0 0 0 0 0 0 0 0 0 0 0 0 0
0 0 0 0 0 0 0 0 0 0 0 0 0 0 0 0 0 0 0 0 0 0 0 0 0 0 0 0 0 0 0 0 0 0 0 0 0 0 0 0 0 0 0 0
0 0 0 0 0 0 0 0 0 0 0 0 0 0 0 0 0 0 0 0 0 0 0 0 0 0 0 0 0 0 0 0 0 0 0 0 0 0 0 0 0 0 0 0
0 0 0 0 0 0 0 0 0 0 0 0 0 0 0 0 0 0 0 0 0 0 0 0 0 0 0 0 0 0 0 0 0 0 0 0 0 0 0 0 0 0 0 0
0 0 0 0 0 0 0 0 0 0 0 0 0 0 0 0 0 0 0 0 0 0 0 0 0 0 0 0 0 0 0 0 0 0 0 0 0 0 0 0 0 0 0 0
0 0 0 0 0 0 0 0 0 0 0 0 0 0 0 0 0 0 0 0 0 0 0 0 0 0 0 0 0 0 0 0 0 0 0 0 0 0 0 0 0 0 0 0
0 0 0 0 0 0 0 0 0 0 0 0 0 0 0 0 0 0 0 0 0 0 0 0 0 0 0 0 0 0 0 0 0 0 0 0 0 0 0 0 0 0 0 0
0 0 0 0 0 0 0 0 0 0 0 0 0 0 0 0 0 0 0 0 0 0 0 0 0 0 0 0 0 0 0 0 0 0 0 0 0 0 0 0 0 0 0 0
0 0 0 0 0 0 0 0 0 0 0 0 0 0 0 0 0 0 0 0 0 0 0 0 0 0 0 0 0 0 0 0 0 0 0 0 0 0 0 0 0 0 0 0
0 0 0 0 0 0 0 0 0 0 0 0 0 0 0 0 0 0 0 0 0 0 0 0 0 0 0 0 0 0 0 0 0 0 0 0 0 0 0 0 0 0 0 0
0 0 0 0 0 0 0 0 0 0 0 0 0 0 0 0 0 0 0 0 0 0 0 0 0 0 0 0 0 0 0 0 0 0 0 0 0 0 0 0 0 0 0 0
0 0 0 0 0 0 0 0 0 0 0 0 0 0 0 0 0 0 0 0 0 0 0 0 0 0 0 0 0 0 0 0 0 0 0 0 0 0 0 0 0 0 0 0
Wind_Speed
2 2 1 0 1 1 2 4 5 5 7 9 11 12 13 13 13 12 11 11 10 9 8 7 8 7 7 7 6 6 7 7 6 5 5 5 5 5 5 5 5 5 5 5
2 2 2 2 3 2 2 2 4 6 3 5 10 10 11 13 13 13 12 11 10 10 9 8 7 7 7 6 5 6 6 5 4 4 5 5 4 4 5 5 5 5 5 5
0 1 3 3 3 0 2 2 4 4 5 11 10 12 13 13 13 12 12 12 11 9 8 7 6 6 6 5 5 5 5 4 4 4 4 4 4 5 4 4 4 4 4 4
2 1 2 4 2 3 4 3 2 5 8 10 9 8 7 9 12 12 12 11 10 8 7 5 5 5 5 5 5 4 4 3 3 3 3 4 4 4 3 2 3 3 3 3
3 2 2 2 1 3 3 1 3 8 11 10 12 9 6 6 9 10 10 9 8 7 7 6 5 5 6 5 4 4 3 2 2 3 3 3 3 3 2 2 2 2 2 2
4 3 4 4 1 3 5 0 4 9 12 12 9 6 5 8 11 11 10 9 8 7 7 6 5 6 6 5 4 3 2 2 2 3 3 3 2 2 1 2 2 2 2 2
3 2 4 2 1 3 1 5 7 9 11 9 4 4 9 12 11 11 11 10 9 8 6 5 5 6 6 5 4 2 3 3 3 3 3 3 2 2 2 2 3 3 3 3
3 2 4 1 3 3 4 3 8 8 8 8 9 12 12 12 13 12 11 10 9 8 6 4 5 6 6 4 2 3 3 3 3 3 2 3 3 3 3 3 3 3 2 3
5 4 2 2 0 1 4 7 6 8 9 12 13 13 12 11 11 11 10 9 7 8 7 5 4 6 6 3 3 4 4 3 3 3 3 3 3 3 3 2 2 2 1 2
3 1 2 3 3 4 6 7 9 11 12 12 13 13 12 11 10 10 9 9 7 8 7 5 4 4 4 4 4 5 4 3 2 3 2 3 2 2 2 1 1 1 1 1
3 2 4 4 4 7 10 12 13 11 10 12 15 14 12 11 10 9 8 7 7 7 6 5 4 4 3 4 4 4 3 2 2 2 2 2 2 1 1 1 2 1 1 1
7 8 7 5 5 8 11 11 13 13 11 10 12 13 11 10 8 8 8 7 7 6 6 4 4 3 2 3 4 4 3 2 1 1 1 1 1 1 1 0 1 2 3 3
6 7 7 9 7 7 9 11 11 12 13 12 9 11 11 8 7 8 8 8 7 6 5 4 3 2 2 2 4 4 3 2 1 1 1 1 1 1 1 2 2 1 2 3
12 12 9 6 7 9 12 12 12 12 11 11 10 10 10 8 8 8 7 6 6 6 5 4 3 2 1 3 3 3 2 2 2 1 1 1 1 1 1 0 1 2 3 4
7 8 11 11 12 12 12 13 14 11 10 9 9 10 10 9 8 7 6 6 5 5 4 3 3 2 1 3 3 3 2 1 1 1 1 1 1 1 1 1 0 1 2 3
11 14 16 16 15 13 13 14 13 11 10 9 8 8 8 8 7 6 5 6 6 4 4 4 3 2 3 4 3 2 2 2 2 2 1 1 1 1 1 1 0 1 1 2
16 15 15 16 15 13 12 11 12 11 10 10 9 9 8 8 7 6 5 4 4 4 3 4 3 2 3 4 3 2 1 1 2 2 2 2 2 1 1 1 0 0 1 2
15 17 17 19 17 14 12 11 11 11 10 9 10 9 9 8 7 5 4 4 3 2 1 2 2 2 3 3 3 2 2 1 1 2 2 2 2 1 1 1 0 1 1 1
13 15 14 15 15 14 13 12 11 10 9 10 10 9 8 7 6 5 5 5 4 3 2 2 4 3 3 3 3 2 2 2 2 2 2 2 2 1 1 0 0 1 1 0
13 14 15 14 13 12 12 11 11 10 9 10 9 8 7 6 6 6 5 4 4 4 3 4 4 3 3 2 3 2 2 3 3 3 2 2 2 2 1 1 1 1 1 1
16 16 16 15 13 12 12 12 12 11 9 10 10 9 7 6 5 6 5 3 4 3 4 5 4 3 2 2 2 2 2 3 3 3 3 3 2 2 1 1 1 1 1 1
16 15 15 14 13 11 10 10 11 11 10 9 9 8 7 6 5 4 4 4 3 5 4 3 3 4 4 3 2 2 2 3 3 3 3 3 3 2 2 2 2 2 1 1
14 14 15 15 14 12 10 10 11 11 11 10 9 9 8 6 5 5 4 4 3 6 5 4 5 6 6 3 2 2 3 3 4 4 4 4 3 3 3 3 2 2 2 2
13 14 13 12 12 12 11 10 9 9 9 9 8 8 7 5 4 4 3 4 7 8 5 5 7 7 6 2 2 2 3 3 3 4 4 3 3 3 3 3 3 3 3 3
14 13 13 14 13 11 11 10 9 8 8 6 6 7 6 6 5 5 4 5 7 7 4 5 8 8 4 3 3 3 3 4 4 4 4 4 4 4 4 4 4 3 3 4
13 12 12 12 10 9 9 9 8 7 7 6 5 5 4 4 4 4 4 5 7 7 5 4 4 5 4 4 4 3 3 3 4 5 5 5 5 5 4 5 6 4 4 4
11 9 8 7 7 8 9 9 9 8 8 7 6 5 5 5 4 5 5 5 5 5 5 4 4 4 4 4 4 4 3 3 4 5 5 5 5 5 6 6 5 4 4 4
Wind_Direction
247 265 181 282 22 117 141 178 174 179 162 167 159 151 146 142 139 138 134 130 125 122 118 112 105 99 95 92 89 89 88 83 81 80 78 76 73 71 71 69 72 72 74 65
12 21 86 65 41 59 71 99 118 120 112 130 132 132 140 145 145 144 140 135 131 128 125 122 119 114 107 100 96 95 92 89 85 81 76 71 69 70 70 65 63 66 67 63
223 337 38 346 320 63 85 72 135 156 154 138 139 150 153 152 151 147 143 139 138 136 133 132 129 124 121 117 109 100 95 89 84 83 77 67 72 72 71 68 69 70 65 62
119 85 249 262 308 133 108 63 90 119 134 143 136 127 128 144 146 143 142 140 138 136 130 124 119 118 116 113 108 102 95 88 88 89 81 74 73 73 70 71 75 73 65 57
121 160 283 286 200 147 122 58 106 126 127 119 115 101 98 120 132 136 136 135 133 132 127 123 123 122 115 113 108 103 103 102 99 100 95 85 79 73 65 73 70 66 63 55
125 153 234 251 222 142 100 19 152 141 141 141 135 136 150 139 129 126 125 125 124 121 117 121 127 125 119 122 120 121 124 114 101 104 108 99 89 73 59 80 78 72 59 42
138 189 261 274 146 121 155 235 158 149 148 146 139 141 136 133 127 127 127 128 127 124 123 130 131 123 120 124 138 152 130 111 96 95 104 106 91 72 74 79 72 60 51 29
138 172 256 350 132 170 208 128 126 130 132 118 112 116 124 128 129 130 129 130 129 124 120 121 128 125 124 133 147 126 112 101 90 78 79 96 92 72 64 78 77 57 41 18
170 200 258 341 70 81 128 120 118 124 123 123 123 126 127 128 130 130 130 128 124 125 119 115 125 130 130 140 126 112 101 91 84 80 74 81 93 86 67 65 73 56 41 8
102 40 45 54 62 69 94 109 118 125 127 128 128 131 129 130 129 128 125 125 126 124 122 121 121 122 133 138 125 115 110 101 97 93 76 64 70 86 93 92 89 74 39 356
109 134 96 54 82 101 98 104 109 111 117 127 129 131 132 131 129 126 124 122 127 129 128 131 126 120 127 125 117 111 110 105 101 94 91 77 64 70 124 194 196 185 212 241
193 186 155 152 135 122 115 117 122 118 112 118 126 128 127 126 126 127 126 123 124 125 128 133 130 126 125 129 127 125 120 120 126 126 107 111 100 38 14 236 246 220 217 220
141 127 115 120 117 110 113 120 121 121 125 122 120 125 124 121 122 123 126 132 135 139 140 139 135 136 142 142 139 140 149 158 160 166 162 161 154 132 360 348 351 333 303 285
121 112 108 118 122 117 117 115 111 108 113 118 120 120 118 117 124 131 139 144 141 138 138 144 150 174 180 148 144 147 154 176 182 193 188 193 189 176 167 109 357 344 351 2
113 113 125 120 116 117 119 119 117 116 116 115 121 125 126 130 138 143 143 136 128 130 144 153 170 201 161 147 146 153 161 184 185 174 168 176 171 158 153 146 50 337 343 354
111 113 121 126 130 132 131 132 132 133 131 128 131 134 136 136 134 132 135 138 140 160 176 176 192 203 164 152 150 156 185 199 175 154 141 136 136 136 131 125 69 2 345 331
131 138 141 142 145 145 144 144 143 142 140 139 141 136 129 124 124 135 151 160 162 170 176 183 201 200 162 159 161 167 173 177 152 141 148 151 145 143 142 137 124 307 302 297
152 153 154 153 152 150 146 143 144 144 145 144 138 133 135 140 151 161 155 133 121 120 179 194 186 161 151 157 161 164 166 170 159 161 156 151 148 144 135 136 250 280 302 340
137 142 145 148 149 148 148 148 148 145 142 142 144 148 153 157 159 153 141 140 149 175 218 195 166 155 159 175 164 161 167 167 157 151 148 147 138 135 142 164 262 274 286 315
140 144 145 145 145 146 148 148 146 145 147 148 146 146 151 161 158 152 154 171 198 200 192 171 160 160 166 175 162 163 172 173 168 158 151 152 158 161 179 220 254 259 262 266
147 148 149 150 149 150 152 151 151 153 153 153 156 163 169 170 163 155 157 201 236 203 181 176 170 174 177 179 168 168 170 173 173 170 167 168 172 182 207 239 254 247 243 255
153 153 154 153 152 153 155 154 155 156 155 160 163 162 160 165 169 171 193 206 208 178 169 172 177 184 183 172 166 174 173 175 172 168 171 175 182 196 216 235 248 247 239 243
155 156 156 158 158 155 152 157 160 161 164 168 168 168 172 177 172 172 211 217 183 177 171 180 187 188 177 162 173 186 185 185 183 182 185 189 196 203 216 231 240 239 235 238
154 157 156 153 147 150 159 167 165 167 169 171 175 174 168 168 190 208 199 180 179 179 180 189 191 190 177 175 192 198 200 197 193 191 192 196 202 207 217 228 237 235 234 236
155 153 151 152 158 167 169 162 158 161 164 171 177 179 178 178 182 193 182 184 184 179 181 193 195 193 184 192 204 210 213 210 204 196 198 202 209 213 220 227 230 230 230 233
155 159 164 168 167 164 162 163 166 169 171 174 182 184 184 181 177 165 170 181 181 183 182 183 187 190 194 203 211 216 218 217 211 208 209 211 216 219 224 227 230 228 229 231
150 152 152 152 156 160 163 167 171 176 178 179 184 186 182 178 174 176 176 176 178 184 187 188 189 194 200 208 215 219 219 216 213 212 212 213 216 222 226 227 227 227 225 227